Snowfall_Accumulation
1.5 1.6 2.1 1.8 1.9 2.2 2.8 4.2 7.3 6.3 1.6 0.3 0.2 0.0 0.0 0.0 0.0 0.0 0.0 0.0 0.1 0.4 0.5 0.4 0.3 0.2 0.1 0.1 0.2 0.3 0.4 0.1 0.0 0.0 0.0 0.0 0.0 0.0
2.0 2.3 2.3 2.3 2.2 2.2 2.7 3.2 5.0 7.0 4.7 0.7 0.2 0.0 0.0 0.0 0.0 0.0 0.0 0.0 0.1 0.2 0.2 0.3 0.2 0.2 0.2 0.2 0.1 0.2 0.3 0.1 0.0 0.0 0.0 0.1 0.1 0.1
2.1 2.6 2.6 2.7 3.1 2.5 2.5 2.7 3.0 4.1 4.9 0.8 0.2 0.0 0.0 0.0 0.0 0.0 0.0 0.0 0.0 0.0 0.1 0.2 0.3 0.3 0.2 0.2 0.2 0.1 0.1 0.1 0.0 0.0 0.0 0.0 0.1 0.1
2.4 2.8 3.0 2.7 2.9 2.6 2.3 2.3 2.0 2.1 3.7 2.5 0.4 0.2 0.1 0.1 0.1 0.1 0.3 0.0 0.2 0.0 0.1 0.2 0.3 0.3 0.3 0.2 0.2 0.2 0.1 0.1 0.1 0.0 0.0 0.0 0.1 0.1
2.7 3.0 3.0 2.8 2.8 2.5 2.5 2.3 1.9 1.6 2.2 3.1 1.5 0.4 0.2 0.2 0.2 0.5 0.4 0.5 0.5 0.0 0.1 0.1 0.2 0.2 0.3 0.3 0.3 0.3 0.2 0.1 0.1 0.1 0.0 0.1 0.1 0.1
2.2 2.1 2.7 3.7 3.7 3.4 3.6 3.1 2.8 3.1 3.3 3.8 2.9 1.8 1.2 0.8 1.2 1.6 1.5 1.0 1.0 1.0 0.5 0.1 0.2 0.3 0.3 0.4 0.4 0.5 0.5 0.5 0.5 0.4 0.4 0.3 0.3 0.2
1.5 1.4 2.2 3.5 3.6 5.0 6.3 5.7 5.5 6.7 6.7 6.8 5.7 4.4 3.6 3.4 3.4 2.7 3.2 2.1 1.5 1.3 1.2 0.5 0.4 0.1 0.1 0.1 0.1 0.4 0.6 0.6 0.6 0.6 0.5 0.5 0.5 0.5
1.5 1.0 1.3 2.4 2.8 3.5 4.4 5.1 6.0 8.6 10.0 10.6 9.4 8.4 5.8 4.0 3.7 4.3 4.8 5.6 4.6 1.6 1.9 1.5 0.6 0.8 0.4 0.3 0.2 0.6 0.7 0.8 0.9 0.9 0.9 0.8 0.8 0.7
1.3 1.1 1.2 1.9 2.5 3.4 3.8 3.2 3.3 4.4 7.2 9.4 11.4 8.8 6.4 4.7 6.2 7.0 6.8 7.5 5.7 2.8 3.1 3.4 1.3 1.8 0.6 0.3 0.3 0.8 1.0 1.1 1.2 1.2 1.3 1.2 1.2 1.2
1.0 1.0 1.2 1.5 2.7 5.0 5.2 4.8 4.1 4.5 5.6 7.3 10.6 9.5 6.8 5.5 8.0 10.9 11.4 10.7 5.8 2.4 2.9 6.6 2.0 1.8 0.9 0.6 0.3 0.6 0.9 1.1 1.2 1.4 1.5 1.6 1.6 1.5
0.7 0.6 1.1 1.6 2.9 4.9 5.7 5.2 3.7 3.3 3.7 4.9 5.9 7.6 6.9 6.2 6.1 10.5 13.9 14.5 10.5 4.1 2.8 6.0 3.5 2.4 2.0 1.4 0.7 0.6 1.0 1.0 1.3 1.4 1.5 1.5 1.7 1.7
1.3 0.9 1.4 2.6 3.5 4.3 5.2 5.7 7.2 5.3 4.1 3.8 3.8 4.1 4.8 5.5 4.4 8.2 10.7 14.0 12.6 8.7 4.1 6.0 5.2 5.4 6.2 2.2 2.1 1.4 1.0 0.7 0.8 1.0 1.2 1.3 1.7 1.6
2.8 1.7 1.3 2.7 3.3 3.4 4.0 5.3 8.9 7.2 5.0 5.3 4.8 4.6 4.6 5.7 7.2 9.4 10.2 12.5 14.4 12.1 6.8 9.5 9.9 8.1 10.6 5.8 3.6 2.3 1.7 1.1 0.9 1.0 0.8 0.9 1.2 1.5
3.6 2.2 1.8 2.5 2.7 2.8 3.3 3.8 4.3 4.5 5.1 5.4 5.3 5.4 5.7 6.8 7.0 8.5 11.5 13.1 10.7 8.5 6.5 10.3 14.9 12.5 13.1 10.7 6.7 4.8 3.3 2.8 2.4 2.1 1.8 1.6 1.4 1.2
3.2 2.4 2.2 2.4 2.3 2.5 2.4 3.2 3.3 4.7 6.5 7.0 6.3 5.6 6.1 7.0 7.0 7.6 9.0 10.6 10.6 8.4 5.9 6.6 10.6 11.7 13.3 13.2 8.6 6.0 4.8 3.4 2.9 2.3 2.3 2.1 2.1 1.9
3.7 3.0 3.2 2.8 2.6 2.2 2.2 2.7 3.2 4.6 6.9 8.0 6.7 5.4 5.2 6.1 6.9 8.0 9.2 10.7 11.1 9.3 6.8 5.2 7.1 10.4 11.7 8.4 8.3 6.6 5.1 5.1 3.7 3.2 2.5 2.2 1.6 1.4
5.6 6.2 5.2 4.2 4.0 3.4 3.0 2.7 3.1 4.1 5.4 5.5 6.1 6.1 5.5 5.7 6.1 7.2 9.5 11.2 13.5 13.3 12.0 7.1 7.3 8.0 8.0 9.0 9.1 6.5 4.7 4.6 4.3 4.0 4.0 3.3 1.9 1.5
6.0 7.9 5.9 4.7 4.4 4.4 4.1 4.0 3.3 3.6 4.0 4.6 5.4 6.1 6.4 6.9 6.7 6.6 8.6 11.5 13.7 13.9 14.4 13.7 11.1 11.8 11.4 10.4 9.1 7.5 5.5 4.8 4.6 4.4 4.9 5.5 3.7 1.7
5.9 5.6 4.7 4.6 4.6 4.5 4.4 4.6 4.0 3.2 3.8 4.7 5.0 5.5 6.2 6.8 6.9 7.1 7.7 9.6 11.8 13.3 14.3 14.1 14.0 15.5 16.9 18.5 13.3 6.8 7.4 6.5 5.2 4.7 4.1 5.1 5.5 3.1
4.4 5.0 4.8 4.4 4.6 4.9 4.9 4.8 4.2 3.9 4.0 4.5 4.8 4.9 5.6 6.7 7.3 7.2 7.7 9.3 11.2 12.7 13.1 13.9 15.6 17.1 20.0 18.7 17.6 12.2 7.1 7.9 7.8 6.8 5.0 4.0 3.7 2.7
4.2 4.4 4.5 4.7 5.0 5.0 5.3 5.2 5.2 5.2 4.9 5.0 5.2 5.1 5.2 6.1 6.8 6.5 7.2 8.1 10.2 12.3 13.6 13.3 13.8 15.2 16.0 16.3 15.9 13.7 12.0 9.2 7.3 9.2 8.9 9.2 8.1 6.6
4.4 4.5 4.6 4.6 4.9 5.3 5.6 5.5 5.8 5.4 5.1 5.3 5.1 5.0 4.8 5.3 6.2 6.3 7.0 8.3 9.3 10.6 12.2 12.1 12.2 13.6 16.5 18.4 17.4 14.7 13.5 11.7 8.5 6.4 6.5 7.7 12.5 14.4
5.7 5.7 5.5 5.0 4.7 5.2 5.6 5.7 6.1 5.4 5.1 5.3 5.4 5.1 5.1 5.4 5.2 6.0 6.7 7.3 8.5 9.4 10.4 12.2 13.0 13.2 15.0 16.6 17.5 16.1 14.2 12.2 11.2 10.1 8.8 4.5 4.1 5.1